Location: Lancaster
(34.6980°N, 118.1360°W)
Time: 17:39:02
(UTC-07:00)

Envisat - Visible Passes

Search period start: 24 April 2018 00:00
Search period end: 04 May 2018 00:00
Orbit: 764 x 766 km, 98.2° (Epoch: 24 April)

Date Brightness Start Highest point End Pass type
(mag) Time Alt. Az. Time Alt. Az. Time Alt. Az.
24 Apr 3.0 20:13:28 10° SSE 20:18:30 80° ENE 20:23:36 10° N visible
25 Apr 5.1 21:16:57 10° SSW 21:20:58 23° W 21:24:59 10° NW visible
26 Apr 3.7 20:39:07 10° S 20:44:05 56° W 20:49:05 10° NNW visible
27 Apr 3.1 20:02:24 10° SSE 20:07:23 61° ENE 20:12:25 10° N visible
27 Apr 5.7 21:44:43 10° WSW 21:46:45 12° W 21:48:48 10° WNW visible
28 Apr 4.8 21:05:20 10° SSW 21:09:45 30° W 21:14:11 10° NW visible
29 Apr 3.2 20:27:52 10° S 20:32:56 73° W 20:38:01 10° NNW visible
30 Apr 5.6 21:32:24 10° SW 21:35:30 16° W 21:38:38 10° NW visible
01 May 4.3 20:53:51 10° SSW 20:58:34 38° W 21:03:17 10° NNW visible
02 May 3.0 20:16:43 10° SSE 20:21:47 88° ENE 20:26:53 10° NNW visible
03 May 5.3 21:20:29 10° SW 21:24:16 21° W 21:28:04 10° NW visible
